This is the latest recevied weather packets stored in our database for station/object S51UL-6. If no packets are shown the sender has not sent any weather packets the latest 10 day(s).
| Time | Temp. | Humidity | Pressure | Rain* | Wind** | Luminosity | Snow |
|---|---|---|---|---|---|---|---|
| 1787909562 | 27.22° C | 61% | 1016.8 hPa | 0 mm | - | - | - |
| 1787908962 | 27.78° C | 61% | 1017 hPa | 0 mm | - | - | - |
| 1787908662 | 27.78° C | 62% | 1016.8 hPa | 0 mm | - | - | - |
| 1787908362 | 27.22° C | 63% | 1016.7 hPa | 0 mm | - | - | - |
| 1787908062 | 26.67° C | 63% | 1016.7 hPa | 0 mm | - | - | - |
| 1787907763 | 26.67° C | 63% | 1016.6 hPa | 0 mm | - | - | - |
| 1787907165 | 26.11° C | 65% | 1016.7 hPa | 0 mm | - | - | - |
| 1787906862 | 26.11° C | 65% | 1016.7 hPa | 0 mm | - | - | - |
| 1787906564 | 26.11° C | 66% | 1017 hPa | 0 mm | - | - | - |
| 1787906262 | 26.11° C | 66% | 1017.3 hPa | 0 mm | - | - | - |
| 1787905964 | 25.56° C | 66% | 1017.2 hPa | 0 mm | - | - | - |
| 1787905363 | 25.56° C | 68% | 1016.9 hPa | 0 mm | - | - | - |
| 1787905063 | 25.56° C | 69% | 1016.8 hPa | 0 mm | - | - | - |
| 1787904463 | 25° C | 70% | 1016.8 hPa | 0 mm | - | - | - |
| 1787904163 | 25° C | 70% | 1017 hPa | 0 mm | - | - | - |
| 1787903563 | 24.44° C | 72% | 1017.2 hPa | 0 mm | - | - | - |
| 1787903263 | 24.44° C | 72% | 1017.1 hPa | 0 mm | - | - | - |
| 1787902963 | 23.89° C | 75% | 1017.1 hPa | 0 mm | - | - | - |
| 1787902663 | 23.89° C | 75% | 1017.3 hPa | 0 mm | - | - | - |
| 1787902363 | 23.33° C | 76% | 1017.4 hPa | 0 mm | - | - | - |
| 1787902063 | 23.33° C | 77% | 1017.4 hPa | 0 mm | - | - | - |
| 1787901763 | 22.78° C | 78% | 1017.4 hPa | 0 mm | - | - | - |
| 1787901463 | 22.78° C | 79% | 1017.4 hPa | 0 mm | - | - | - |
| 1787901165 | 22.22° C | 80% | 1017.5 hPa | 0 mm | - | - | - |
| 1787900563 | 21.67° C | 81% | 1017.6 hPa | 0 mm | - | - | - |
* Rain latest hour (hover to see other rain measurements)
** Current wind speed in m/s (hover to see current wind gust speed)